Tracking 28790 objects as of 18-Apr-2024
HD Live streaming from Space Station
objects crossing your sky now

RSW-01

Track RSW-01 now!
10-day predictions


NORAD ID: 49112
Int'l Code: 2021-076A
Perigee: 1,093.3 km
Apogee: 1,119.1 km
Inclination: 86.4 °
Period: 107.2 minutes
Semi major axis: 7477 km
RCS: Unknown
Launch date: August 24, 2021
Source: People's Republic of China (PRC)
Launch site: Jiuquan Satellite Launch Center, China (JSC)
Your satellite tracking list
Your tracking list is empty




NASA's NSSDC Master Catalog

Two Line Element Set (TLE):
1 49112U 21076A   24109.50692737  .00000136  00000-0  21189-3 0  9992
2 49112  86.4031  80.0403 0017282 111.3059 248.9933 13.42751086129902
Source of the keplerian elements: AFSPC